| time (UTC) | temp F | wind direction | speed MPH | gust MPH | rain 1hr in | rain 24hr in | rain mn in | humidity % | barometer mb |
| 20260903170045 | 71 | 214 | 1.0 | 3.0 | 0.10 | 0.19 | 0.19 | 85 | 1015.7 |
| 20260903164555 | 70 | 212 | 1.0 | 4.0 | 0.13 | 0.19 | 0.19 | 86 | 1016.3 |
| 20260903163049 | 71 | 199 | 2.0 | 3.0 | 0.13 | 0.18 | 0.18 | 86 | 1016.9 |
| 20260903161551 | 71 | 247 | 4.0 | 10.0 | 0.09 | 0.14 | 0.14 | 87 | 1016.9 |
| 20260903160044 | 70 | 267 | 5.0 | 13.0 | 0.04 | 0.09 | 0.09 | 87 | 1016.4 |
| 20260903154550 | 71 | 269 | 4.0 | 11.0 | 0.01 | 0.06 | 0.06 | 85 | 1016.0 |
| 20260903153043 | 73 | 317 | 4.0 | 9.0 | 0.00 | 0.05 | 0.05 | 83 | 1015.4 |
| 20260903151543 | 73 | 300 | 4.0 | 10.0 | 0.00 | 0.05 | 0.05 | 79 | 1015.5 |
| 20260903150049 | 73 | 304 | 3.0 | 8.0 | 0.00 | 0.05 | 0.05 | 77 | 1015.3 |
| 20260903144545 | 74 | 48 | 5.0 | 11.0 | 0.00 | 0.05 | 0.05 | 74 | 1014.8 |
| 20260903143104 | 74 | 318 | 6.0 | 16.0 | 0.00 | 0.05 | 0.05 | 71 | 1014.7 |
| 20260903141542 | 72 | 300 | 5.0 | 22.0 | 0.00 | 0.05 | 0.05 | 76 | 1015.4 |
| 20260903140044 | 74 | 14 | 10.0 | 21.0 | 0.00 | 0.05 | 0.05 | 74 | 1014.9 |
| 20260903134548 | 73 | 297 | 10.0 | 19.0 | 0.00 | 0.05 | 0.05 | 81 | 1015.6 |
| 20260903133046 | 75 | 23 | 5.0 | 16.0 | 0.01 | 0.05 | 0.05 | 80 | 1015.1 |
| 20260903131602 | 76 | 295 | 6.0 | 10.0 | 0.01 | 0.05 | 0.05 | 86 | 1015.0 |
| 20260903130044 | 76 | 0 | 0.0 | 3.0 | 0.01 | 0.05 | 0.05 | 86 | 1013.5 |
| 20260903124546 | 76 | 231 | 0.0 | 2.0 | 0.01 | 0.05 | 0.05 | 83 | 1013.1 |
| 20260903123048 | 74 | 0 | 0.0 | 0.0 | 0.00 | 0.04 | 0.04 | 81 | 1013.3 |
| 20260903121543 | 74 | 0 | 0.0 | 0.0 | 0.00 | 0.04 | 0.04 | 81 | 1013.4 |
| 20260903120042 | 73 | 0 | 0.0 | 0.0 | 0.00 | 0.04 | 0.04 | 81 | 1013.3 |
| 20260903114548 | 73 | 0 | 0.0 | 0.0 | 0.00 | 0.04 | 0.04 | 82 | 1013.2 |
| 20260903113045 | 73 | 0 | 0.0 | 0.0 | 0.00 | 0.04 | 0.04 | 82 | 1013.4 |
| 20260903111541 | 72 | 0 | 0.0 | 0.0 | 0.00 | 0.04 | 0.04 | 82 | 1013.5 |
| 20260903110046 | 72 | 0 | 0.0 | 0.0 | 0.00 | 0.04 | 0.04 | 82 | 1013.5 |
| 20260903104543 | 72 | 0 | 0.0 | 0.0 | 0.00 | 0.04 | 0.04 | 83 | 1013.3 |
| 20260903103044 | 72 | 0 | 0.0 | 0.0 | 0.00 | 0.04 | 0.04 | 83 | 1013.4 |
| 20260903101543 | 72 | 0 | 0.0 | 0.0 | 0.00 | 0.04 | 0.04 | 84 | 1013.5 |
| 20260903100048 | 72 | 0 | 0.0 | 0.0 | 0.00 | 0.04 | 0.04 | 84 | 1013.5 |
| 20260903094546 | 72 | 0 | 0.0 | 0.0 | 0.00 | 0.04 | 0.04 | 84 | 1013.6 |
| 20260903093045 | 72 | 0 | 0.0 | 0.0 | 0.00 | 0.04 | 0.04 | 84 | 1013.6 |
| 20260903091540 | 73 | 0 | 0.0 | 0.0 | 0.00 | 0.04 | 0.04 | 84 | 1013.6 |
| 20260903090046 | 73 | 0 | 0.0 | 0.0 | 0.00 | 0.04 | 0.04 | 85 | 1013.4 |
| 20260903084543 | 73 | 0 | 0.0 | 0.0 | 0.00 | 0.04 | 0.04 | 85 | 1013.5 |
| 20260903083051 | 73 | 0 | 0.0 | 0.0 | 0.00 | 0.04 | 0.04 | 85 | 1013.5 |
| 20260903081547 | 73 | 0 | 0.0 | 0.0 | 0.00 | 0.04 | 0.04 | 85 | 1013.4 |
| 20260903080051 | 73 | 0 | 0.0 | 0.0 | 0.04 | 0.04 | 0.04 | 86 | 1013.6 |
| 20260903074543 | 74 | 0 | 0.0 | 0.0 | 0.04 | 0.04 | 0.04 | 86 | 1013.5 |
| 20260903073043 | 74 | 0 | 0.0 | 1.0 | 0.04 | 0.04 | 0.04 | 87 | 1013.4 |
| 20260903071543 | 75 | 144 | 2.0 | 6.0 | 0.04 | 0.04 | 0.04 | 87 | 1013.4 |
| 20260903070048 | 75 | 0 | 0.0 | 0.0 | 0.00 | 0.00 | 0.00 | 87 | 1013.5 |
| 20260903064542 | 76 | 0 | 0.0 | 0.0 | 0.00 | 0.00 | 0.00 | 86 | 1013.6 |
| 20260903063042 | 76 | 0 | 0.0 | 1.0 | 0.00 | 0.00 | 0.00 | 86 | 1013.6 |
| 20260903061551 | 76 | 0 | 0.0 | 1.0 | 0.00 | 0.00 | 0.00 | 86 | 1013.6 |
| 20260903060045 | 77 | 0 | 0.0 | 0.0 | 0.00 | 0.00 | 0.00 | 87 | 1013.6 |
| 20260903054544 | 77 | 0 | 0.0 | 0.0 | 0.00 | 0.00 | 0.00 | 87 | 1013.7 |
| 20260903053049 | 77 | 0 | 0.0 | 0.0 | 0.00 | 0.00 | 0.00 | 86 | 1013.7 |
| 20260903051547 | 78 | 0 | 0.0 | 1.0 | 0.00 | 0.00 | 0.00 | 86 | 1013.9 |
| 20260903050050 | 77 | 0 | 0.0 | 1.0 | 0.00 | 0.00 | 0.00 | 86 | 1013.7 |
| 20260903044542 | 77 | 0 | 0.0 | 0.0 | 0.00 | 0.00 | 0.00 | 86 | 1013.5 |
| 20260903043048 | 77 | 0 | 0.0 | 0.0 | 0.00 | 0.00 | 0.00 | 87 | 1013.4 |
| 20260903041546 | 77 | 0 | 0.0 | 0.0 | 0.00 | 0.00 | 0.00 | 86 | 1013.4 |
| 20260903040045 | 78 | 0 | 0.0 | 0.0 | 0.00 | 0.00 | 0.00 | 86 | 1013.3 |
| 20260903034544 | 78 | 0 | 0.0 | 0.0 | 0.00 | 0.00 | 0.00 | 86 | 1013.4 |
| 20260903033047 | 78 | 0 | 0.0 | 0.0 | 0.00 | 0.00 | 0.00 | 86 | 1013.3 |
| 20260903031547 | 78 | 0 | 0.0 | 0.0 | 0.00 | 0.00 | 0.00 | 86 | 1013.3 |
| 20260903030043 | 79 | 0 | 0.0 | 0.0 | 0.00 | 0.00 | 0.00 | 85 | 1013.3 |
| 20260903024546 | 79 | 0 | 0.0 | 0.0 | 0.00 | 0.00 | 0.00 | 85 | 1013.3 |
| 20260903023056 | 79 | 0 | 0.0 | 0.0 | 0.00 | 0.00 | 0.00 | 84 | 1013.3 |
| 20260903021544 | 80 | 0 | 0.0 | 0.0 | 0.00 | 0.00 | 0.00 | 83 | 1013.2 |
| 20260903020053 | 80 | 0 | 0.0 | 0.0 | 0.00 | 0.00 | 0.00 | 83 | 1013.2 |
| 20260903014543 | 81 | 0 | 0.0 | 0.0 | 0.00 | 0.00 | 0.00 | 82 | 1013.1 |
| 20260903013052 | 81 | 0 | 0.0 | 0.0 | 0.00 | 0.00 | 0.00 | 80 | 1013.0 |
| 20260903011540 | 82 | 0 | 0.0 | 0.0 | 0.00 | 0.00 | 0.00 | 79 | 1012.8 |
| 20260903010043 | 83 | 0 | 0.0 | 0.0 | 0.00 | 0.00 | 0.00 | 77 | 1012.7 |
| 20260903004549 | 84 | 0 | 0.0 | 0.0 | 0.00 | 0.00 | 0.00 | 75 | 1012.5 |
| 20260903003048 | 85 | 0 | 0.0 | 2.0 | 0.00 | 0.00 | 0.00 | 73 | 1012.4 |
| 20260903001545 | 86 | 0 | 0.0 | 2.0 | 0.00 | 0.00 | 0.00 | 71 | 1012.5 |
| 20260903000042 | 87 | 252 | 0.0 | 3.0 | 0.00 | 0.00 | 0.00 | 70 | 1012.7 |
| 20260902234600 | 87 | 242 | 1.0 | 5.0 | 0.00 | 0.00 | 0.00 | 69 | 1012.7 |
| 20260902233043 | 87 | 244 | 1.0 | 4.0 | 0.00 | 0.00 | 0.00 | 69 | 1012.6 |
| 20260902231623 | 87 | 249 | 3.0 | 5.0 | 0.00 | 0.00 | 0.00 | 69 | 1012.7 |
| 20260902230050 | 87 | 237 | 2.0 | 5.0 | 0.00 | 0.00 | 0.00 | 69 | 1012.6 |
| 20260902224548 | 87 | 290 | 2.0 | 5.0 | 0.00 | 0.01 | 0.00 | 67 | 1012.6 |
| 20260902223044 | 88 | 250 | 2.0 | 5.0 | 0.00 | 0.01 | 0.00 | 66 | 1012.8 |
| 20260902221544 | 88 | 240 | 1.0 | 6.0 | 0.00 | 0.01 | 0.00 | 66 | 1013.0 |
| 20260902220045 | 88 | 236 | 2.0 | 7.0 | 0.00 | 0.01 | 0.00 | 64 | 1012.7 |
| 20260902214543 | 88 | 328 | 2.0 | 6.0 | 0.00 | 0.05 | 0.00 | 64 | 1012.7 |
| 20260902213049 | 89 | 260 | 4.0 | 12.0 | 0.00 | 0.05 | 0.00 | 61 | 1013.0 |
| 20260902211544 | 90 | 243 | 5.0 | 12.0 | 0.00 | 0.05 | 0.00 | 58 | 1012.9 |
| 20260902210045 | 89 | 252 | 4.0 | 12.0 | 0.00 | 0.05 | 0.00 | 59 | 1012.9 |
| 20260902204551 | 90 | 259 | 6.0 | 12.0 | 0.00 | 0.07 | 0.00 | 57 | 1013.0 |
| 20260902203048 | 89 | 193 | 4.0 | 11.0 | 0.00 | 0.07 | 0.00 | 63 | 1012.6 |
| 20260902201553 | 89 | 333 | 3.0 | 8.0 | 0.00 | 0.07 | 0.00 | 64 | 1012.8 |
| 20260902200045 | 89 | 255 | 3.0 | 8.0 | 0.00 | 0.07 | 0.00 | 65 | 1013.0 |
| 20260902194541 | 89 | 250 | 4.0 | 8.0 | 0.00 | 0.07 | 0.00 | 64 | 1013.1 |
| 20260902193046 | 89 | 250 | 2.0 | 10.0 | 0.00 | 0.07 | 0.00 | 64 | 1013.2 |
| 20260902191543 | 89 | 252 | 2.0 | 7.0 | 0.00 | 0.07 | 0.00 | 68 | 1013.3 |
| 20260902190040 | 88 | 238 | 2.0 | 7.0 | 0.00 | 0.07 | 0.00 | 68 | 1013.4 |
| 20260902184540 | 89 | 159 | 0.0 | 2.0 | 0.00 | 0.07 | 0.00 | 67 | 1013.5 |
| 20260902183048 | 87 | 248 | 1.0 | 8.0 | 0.00 | 0.07 | 0.00 | 67 | 1013.6 |
| 20260902181553 | 87 | 259 | 2.0 | 5.0 | 0.00 | 0.07 | 0.00 | 67 | 1013.7 |
| 20260902180040 | 86 | 276 | 1.0 | 6.0 | 0.00 | 0.07 | 0.00 | 68 | 1013.8 |
| 20260902174539 | 86 | 227 | 3.0 | 8.0 | 0.00 | 0.07 | 0.00 | 66 | 1014.0 |
| 20260902173047 | 86 | 183 | 1.0 | 5.0 | 0.00 | 0.07 | 0.00 | 65 | 1014.0 |
| 20260902171559 | 86 | 285 | 2.0 | 5.0 | 0.00 | 0.07 | 0.00 | 65 | 1014.0 |